Sigfox identifier Datetime Temperature Humidity SNR
0038ACFB 2018-10-09 09:12:46 20.6 39 18.8
0038ACFB 2018-10-09 08:07:25 20.6 38 18.7
0038ACFB 2018-10-09 07:02:06 20.6 38 18.7
0038ACFB 2018-10-09 05:56:47 20.6 38 18.6
0038ACFB 2018-10-09 04:51:27 20.5 38 18.5
0038ACFB 2018-10-09 01:35:35 20.5 37 14.3
0038ACFB 2018-10-09 00:30:15 20.6 37 14
0038ACFB 2018-10-08 23:24:57 20.5 37 14
0038ACFB 2018-10-08 22:19:37 20.6 37 13.5
0038ACFB 2018-10-08 21:14:14 20.5 37 13.5
0038ACFB 2018-10-08 20:08:56 20.6 37 13.5
0038ACFB 2018-10-08 19:03:36 20.5 37 12.7
0038ACFB 2018-10-08 17:58:18 20.5 36 12.6
0038ACFB 2018-10-08 16:53:00 20.4 36 12.6
0038ACFB 2018-10-08 15:47:41 20.4 36 10.3
0038ACFB 2018-10-08 14:42:25 20.4 36 9.7
0038ACFB 2018-10-08 13:37:06 20.4 36 9.7
0038ACFB 2018-10-08 11:26:28 20.2 33 9.9
0038ACFB 2018-10-08 08:10:33 20 32 9.8
0038ACFB 2018-10-08 07:05:13 20 33 9.6
0038ACFB 2018-10-08 05:59:54 20 34 9.3
0038ACFB 2018-10-08 04:54:34 20 34 9.4
0038ACFB 2018-10-08 03:49:18 20 34 9.5
0038ACFB 2018-10-08 02:43:57 20 35 9.3
0038ACFB 2018-10-08 00:33:23 20.2 36 9.3
0038ACFB 2018-10-07 23:28:01 20.2 37 9.3
0038ACFB 2018-10-07 22:22:40 20.2 37 9.4
0038ACFB 2018-10-07 21:17:15 20.2 38 9.3
0038ACFB 2018-10-07 19:06:34 20.2 38 9.4
0038ACFB 2018-10-07 18:01:12 20.2 38 9.4
0038ACFB 2018-10-07 15:50:29 20.2 38 9.2
0038ACFB 2018-10-07 14:45:08 20.2 38 9.2
0038ACFB 2018-10-07 09:18:31 20.3 38 9.2
0038ACFB 2018-10-07 08:13:13 20.3 38 9
0038ACFB 2018-10-07 07:07:49 20.4 39 9.3
0038ACFB 2018-10-07 06:02:29 20.4 39 9.1
0038ACFB 2018-10-07 04:57:07 20.4 39 9.2
0038ACFB 2018-10-07 03:51:46 20.4 39 9.4
0038ACFB 2018-10-07 01:41:07 20.4 40 9.4
0038ACFB 2018-10-07 00:35:44 20.4 40 9.5
0038ACFB 2018-10-06 23:30:23 20.4 40 9.5
0038ACFB 2018-10-06 22:25:03 20.5 40 9.4
0038ACFB 2018-10-06 21:19:40 20.5 40 9.3
0038ACFB 2018-10-06 20:14:18 20.5 40 9.4
0038ACFB 2018-10-06 18:03:33 20.6 39 9.5
0038ACFB 2018-10-06 16:58:14 20.6 40 9.6
0038ACFB 2018-10-06 15:52:50 20.6 40 9.6
0038ACFB 2018-10-06 14:47:30 20.6 40 9.7
0038ACFB 2018-10-06 13:42:12 20.6 40 9.6
0038ACFB 2018-10-06 11:31:23 20.6 40 9.6
0038ACFB 2018-10-06 10:26:05 20.6 39 9.8
0038ACFB 2018-10-06 09:20:43 20.6 40 9.8
0038ACFB 2018-10-06 07:10:03 20.6 40 10
0038ACFB 2018-10-06 04:59:23 20.7 41 10.2
0038ACFB 2018-10-06 03:54:02 20.7 41 10.4
0038ACFB 2018-10-06 02:48:42 20.8 42 10.7
0038ACFB 2018-10-06 01:43:23 20.8 42 10.6
0038ACFB 2018-10-05 23:32:43 20.9 43 10.8
0038ACFB 2018-10-05 22:27:17 21 43 11.3
0038ACFB 2018-10-05 21:21:55 21 44 10.7
0038ACFB 2018-10-05 20:16:29 21 44 11.3
0038ACFB 2018-10-05 19:11:09 21.2 45 11
0038ACFB 2018-10-05 18:05:41 21.2 45 9.9
0038ACFB 2018-10-05 15:54:55 21.4 46 10.3
0038ACFB 2018-10-05 13:44:13 21.5 58 0